• In Germany
  • List of Countries
  • For 7 days
  • Water Temperature
  • Satellite Maps
  • Weather Map
  • Weather Widgets
  • user-avatar
    Login

    Hourly Weather Korçe

    Today, 27 June, Tuesday

    Time Temperature Precipitation Wind Pressure Humidity
    00:00 +14°C° 0.1 mm 0 mps 665 mmHg 88%
    01:00 +14°C° 0 mm 0 mps 665 mmHg 88%
    02:00 +13°C° 0 mm 0 mps 665 mmHg 89%
    03:00 +13°C° 0 mm 0 mps 665 mmHg 89%
    04:00 +13°C° 0 mm 0 mps 665 mmHg 89%
    05:00 +15°C° 0 mm 0 mps 666 mmHg 81%
    06:00 +18°C° 0 mm 0 mps 667 mmHg 73%
    07:00 +21°C° 0 mm 0 mps 668 mmHg 64%
    08:00 +23°C° 0 mm 0 mps 668 mmHg 56%
    09:00 +26°C° 0 mm 1 mps 669 mmHg 48%
    10:00 +28°C° 0 mm 1 mps 669 mmHg 40%
    11:00 +29°C° 0 mm 2 mps 669 mmHg 37%
    12:00 +29°C° 0 mm 2 mps 669 mmHg 34%
    13:00 +30°C° 0 mm 3 mps 669 mmHg 31%
    14:00 +29°C° 0 mm 3 mps 668 mmHg 33%
    15:00 +29°C° 0 mm 3 mps 668 mmHg 34%
    16:00 +28°C° 0 mm 3 mps 668 mmHg 36%
    17:00 +25°C° 0 mm 2 mps 667 mmHg 46%
    18:00 +23°C° 0 mm 2 mps 666 mmHg 56%
    19:00 +20°C° 0 mm 1 mps 666 mmHg 65%
    20:00 +19°C° 0 mm 1 mps 666 mmHg 69%
    21:00 +18°C° 0 mm 1 mps 665 mmHg 72%
    22:00 +15°C° 0 mm 1 mps 665 mmHg 75%
    23:00 +15°C° 0 mm 1 mps 665 mmHg 76%

    Tomorrow, 28 June, Wednesday

    Time Temperature Precipitation Wind Pressure Humidity
    00:00 +15°C° 0 mm 1 mps 665 mmHg 76%
    01:00 +15°C° 0 mm 1 mps 665 mmHg 76%
    02:00 +15°C° 0 mm 1 mps 665 mmHg 76%
    03:00 +15°C° 0 mm 1 mps 665 mmHg 76%
    04:00 +15°C° 0 mm 2 mps 665 mmHg 75%
    05:00 +17°C° 0 mm 2 mps 665 mmHg 67%
    06:00 +21°C° 0 mm 1 mps 666 mmHg 59%
    07:00 +23°C° 0 mm 1 mps 667 mmHg 51%
    08:00 +25°C° 0 mm 1 mps 668 mmHg 45%
    09:00 +27°C° 0 mm 2 mps 668 mmHg 40%
    10:00 +29°C° 0 mm 2 mps 668 mmHg 34%
    11:00 +29°C° 0 mm 2 mps 668 mmHg 33%
    12:00 +30°C° 0 mm 3 mps 668 mmHg 32%
    13:00 +30°C° 0 mm 3 mps 668 mmHg 30%
    14:00 +30°C° 0 mm 3 mps 668 mmHg 32%
    15:00 +29°C° 0 mm 3 mps 667 mmHg 35%
    16:00 +29°C° 0 mm 3 mps 667 mmHg 37%
    17:00 +26°C° 0 mm 2 mps 666 mmHg 47%
    18:00 +23°C° 0 mm 2 mps 666 mmHg 57%
    19:00 +20°C° 0 mm 1 mps 665 mmHg 67%
    20:00 +20°C° 0 mm 1 mps 665 mmHg 68%
    21:00 +19°C° 0 mm 1 mps 666 mmHg 69%
    22:00 +19°C° 0 mm 1 mps 666 mmHg 70%
    23:00 +17°C° 0 mm 2 mps 666 mmHg 70%

    Day after tomorrow, 29 June, Thursday

    Time Temperature Precipitation Wind Pressure Humidity
    00:00 +17°C° 0 mm 2 mps 665 mmHg 70%
    01:00 +17°C° 0 mm 2 mps 665 mmHg 70%
    02:00 +17°C° 0 mm 2 mps 665 mmHg 67%
    03:00 +16°C° 0 mm 2 mps 665 mmHg 64%
    04:00 +16°C° 0 mm 2 mps 665 mmHg 61%
    05:00 +19°C° 0 mm 2 mps 666 mmHg 55%
    06:00 +23°C° 0 mm 2 mps 666 mmHg 49%
    07:00 +25°C° 0 mm 2 mps 667 mmHg 44%
    08:00 +27°C° 0 mm 3 mps 668 mmHg 39%
    09:00 +29°C° 0 mm 3 mps 668 mmHg 34%
    10:00 +32°C° 0 mm 4 mps 669 mmHg 29%
    11:00 +33°C° 0 mm 4 mps 669 mmHg 27%
    12:00 +33°C° 0 mm 5 mps 669 mmHg 26%
    13:00 +33°C° 0 mm 5 mps 669 mmHg 25%
    14:00 +33°C° 0 mm 5 mps 669 mmHg 27%
    15:00 +32°C° 0 mm 4 mps 668 mmHg 28%
    16:00 +32°C° 0 mm 4 mps 668 mmHg 30%
    17:00 +28°C° 0 mm 3 mps 668 mmHg 40%
    18:00 +25°C° 0 mm 2 mps 667 mmHg 50%
    19:00 +21°C° 0 mm 2 mps 666 mmHg 61%
    20:00 +20°C° 0 mm 2 mps 667 mmHg 62%
    21:00 +19°C° 0 mm 2 mps 667 mmHg 63%
    22:00 +18°C° 0 mm 2 mps 667 mmHg 65%
    23:00 +18°C° 0 mm 2 mps 667 mmHg 63%

    30 June, Friday

    Time Temperature Precipitation Wind Pressure Humidity
    00:00 +17°C° 0 mm 2 mps 667 mmHg 62%
    01:00 +17°C° 0 mm 2 mps 667 mmHg 60%
    02:00 +17°C° 0 mm 2 mps 667 mmHg 59%
    03:00 +16°C° 0 mm 2 mps 667 mmHg 58%
    04:00 +16°C° 0 mm 2 mps 667 mmHg 56%
    05:00 +20°C° 0 mm 1 mps 668 mmHg 52%
    06:00 +23°C° 0 mm 1 mps 669 mmHg 47%
    07:00 +25°C° 0 mm 1 mps 670 mmHg 42%
    08:00 +28°C° 0 mm 1 mps 670 mmHg 37%
    09:00 +30°C° 0 mm 1 mps 671 mmHg 32%
    10:00 +32°C° 0 mm 1 mps 671 mmHg 27%
    11:00 +33°C° 0 mm 1 mps 671 mmHg 25%
    12:00 +33°C° 0 mm 1 mps 671 mmHg 24%
    13:00 +35°C° 0 mm 2 mps 671 mmHg 22%
    14:00 +35°C° 0 mm 2 mps 671 mmHg 24%
    15:00 +34°C° 0 mm 2 mps 671 mmHg 25%
    16:00 +34°C° 0 mm 2 mps 670 mmHg 27%
    17:00 +30°C° 0 mm 1 mps 670 mmHg 37%
    18:00 +26°C° 0 mm 1 mps 669 mmHg 47%
    19:00 +23°C° 0 mm 1 mps 668 mmHg 57%
    20:00 +22°C° 0 mm 1 mps 668 mmHg 61%
    21:00 +21°C° 0 mm 1 mps 668 mmHg 65%
    22:00 +20°C° 0 mm 1 mps 668 mmHg 69%
    23:00 +20°C° 0 mm 1 mps 667 mmHg 68%

    1 July, Saturday

    Time Temperature Precipitation Wind Pressure Humidity
    00:00 +20°C° 0 mm 1 mps 667 mmHg 66%
    01:00 +19°C° 0 mm 1 mps 667 mmHg 65%
    02:00 +19°C° 0 mm 1 mps 667 mmHg 64%
    03:00 +19°C° 0 mm 1 mps 666 mmHg 63%
    04:00 +19°C° 0 mm 1 mps 666 mmHg 61%
    05:00 +22°C° 0 mm 1 mps 667 mmHg 53%
    06:00 +25°C° 0 mm 1 mps 668 mmHg 45%
    07:00 +29°C° 0 mm 1 mps 669 mmHg 36%
    08:00 +31°C° 0 mm 1 mps 670 mmHg 30%
    09:00 +34°C° 0 mm 2 mps 670 mmHg 25%
    10:00 +35°C° 0 mm 2 mps 671 mmHg 19%
    11:00 +36°C° 0 mm 2 mps 670 mmHg 18%
    12:00 +36°C° 0 mm 2 mps 670 mmHg 17%
    13:00 +37°C° 0 mm 3 mps 670 mmHg 16%
    14:00 +36°C° 0 mm 3 mps 670 mmHg 18%
    15:00 +35°C° 0 mm 3 mps 669 mmHg 20%
    16:00 +35°C° 0 mm 3 mps 669 mmHg 21%
    17:00 +30°C° 0 mm 2 mps 668 mmHg 31%
    18:00 +27°C° 0 mm 2 mps 667 mmHg 41%
    19:00 +23°C° 0 mm 1 mps 666 mmHg 50%
    20:00 +22°C° 0 mm 1 mps 666 mmHg 54%
    21:00 +21°C° 0 mm 1 mps 666 mmHg 58%
    22:00 +19°C° 0 mm 1 mps 665 mmHg 61%
    23:00 +19°C° 0 mm 1 mps 665 mmHg 59%

    2 July, Sunday

    Time Temperature Precipitation Wind Pressure Humidity
    00:00 +19°C° 0 mm 1 mps 665 mmHg 58%
    01:00 +19°C° 0 mm 1 mps 664 mmHg 56%
    02:00 +19°C° 0 mm 1 mps 664 mmHg 56%
    03:00 +18°C° 0 mm 1 mps 664 mmHg 56%
    04:00 +18°C° 0 mm 1 mps 664 mmHg 56%
    05:00 +21°C° 0 mm 1 mps 665 mmHg 50%
    06:00 +24°C° 0 mm 1 mps 665 mmHg 45%
    07:00 +27°C° 0 mm 1 mps 666 mmHg 39%
    08:00 +29°C° 0 mm 1 mps 667 mmHg 35%
    09:00 +31°C° 0 mm 1 mps 667 mmHg 31%
    10:00 +34°C° 0 mm 2 mps 667 mmHg 27%
    11:00 +34°C° 0 mm 2 mps 667 mmHg 28%
    12:00 +34°C° 0 mm 3 mps 667 mmHg 28%
    13:00 +34°C° 0 mm 3 mps 667 mmHg 28%
    14:00 +31°C° 0 mm 3 mps 666 mmHg 35%
    15:00 +29°C° 0 mm 3 mps 665 mmHg 43%
    16:00 +27°C° 0 mm 3 mps 665 mmHg 50%
    17:00 +25°C° 0.1 mm 3 mps 664 mmHg 57%
    18:00 +23°C° 0.1 mm 2 mps 664 mmHg 64%
    19:00 +20°C° 0.1 mm 2 mps 663 mmHg 71%
    20:00 +19°C° 0.1 mm 2 mps 663 mmHg 74%
    21:00 +18°C° 0.1 mm 2 mps 663 mmHg 78%
    22:00 +17°C° 0.1 mm 2 mps 663 mmHg 82%
    23:00 +16°C° 0.1 mm 2 mps 663 mmHg 82%
    Show more